DW7229 Weather Reports


time (UTC)temp
C
wind
direction
speed
KPH
gust
KPH
rain 1hr
cm
rain 24hr
cm
rain mn
cm
humidity
%
barometer
mb
20260507015016 15 225 0.0 6.4 0.00 0.00 0.00 82 1004.7
20260507014019 15 0.0 0.0 0.00 0.00 0.00 82 1004.8
20260507013103 15 113 0.0 1.6 0.00 0.00 0.00 82 1005.0
20260507012026 15 236 1.6 12.9 0.00 0.00 0.00 82 1004.9
20260507010033 15 225 0.0 1.6 0.00 0.00 0.00 82 1004.9
20260507005018 15 0.0 0.0 0.00 0.00 0.00 82 1004.7
20260507004021 15 187 3.2 11.3 0.00 0.00 0.00 82 1004.8
20260507003025 15 178 3.2 9.7 0.00 0.00 0.00 82 1005.0
20260507002028 15 211 3.2 6.4 0.00 0.00 0.00 82 1004.7
20260507001031 15 177 1.6 8.0 0.00 0.00 0.00 82 1004.7
20260507000016 15 265 1.6 11.3 0.00 0.00 0.00 82 1004.7
20260506235020 15 225 0.0 6.4 0.00 0.00 0.00 82 1004.6
20260506234023 15 158 1.6 9.7 0.00 0.00 0.00 81 1004.6
20260506233046 15 162 1.6 8.0 0.00 0.00 0.00 81 1004.6
20260506232050 15 135 1.6 9.7 0.00 0.00 0.00 81 1004.8
20260506231015 15 90 0.0 4.8 0.00 0.00 0.00 81 1005.0
20260506230038 15 146 0.0 3.2 0.00 0.00 0.00 80 1004.9
20260506225041 15 0.0 0.0 0.00 0.00 0.00 80 1004.8
20260506224019 15 210 1.6 12.9 0.00 0.00 0.00 79 1004.9
20260506223016 15 212 1.6 3.2 0.00 0.00 0.00 79 1005.0
20260506222031 15 0.0 4.8 0.00 0.00 0.00 78 1005.2
20260506221016 15 203 0.0 4.8 0.00 0.00 0.00 78 1005.3
20260506220020 16 158 0.0 3.2 0.00 0.00 0.00 78 1005.2
20260506215024 16 0.0 3.2 0.00 0.00 0.00 78 1005.4
20260506214027 16 98 3.2 14.5 0.00 0.00 0.00 78 1005.5
20260506213030 16 0.0 3.2 0.00 0.00 0.00 77 1005.5